Tracking 29892 objects as of 21-Nov-2024
HD Live streaming from Space Station
objects crossing your sky now

STARLINK-5502

Track STARLINK-5502 now!
10-day predictions
STARLINK-5502 is classified as:


NORAD ID: 55644
Int'l Code: 2023-021S
Perigee: 577.3 km
Apogee: 581.0 km
Inclination: 70.0 °
Period: 96.1 minutes
Semi major axis: 6950 km
RCS: Unknown
Launch date: February 17, 2023
Source: United States (US)
Launch site: AIR FORCE WESTERN TEST RANGE (AFWTR)
Your satellite tracking list
Your tracking list is empty




NASA's NSSDC Master Catalog

Two Line Element Set (TLE):
1 55644U 23021S   24325.91926880 -.00000172  00000-0 -65812-5 0  9990
2 55644  69.9991 299.0567 0002682 263.4481  96.6373 14.98335192 97828
Source of the keplerian elements: AFSPC